Simultaneous Nadir Overpasses (SNOs) Predictions

Prediction of SNOs between GOES-17 and METOP-C Satellite Orbit:

Table of predicted SNOs for the next 14.0 days since TLE Epoch: 4/16/2022
Index Date Time (GOES-17) GOES-17 Lat,Lon METOP-C Lat,Lon Distance(km) Time Diff (sec)
1 04/16/2022 06:55:37 -0.05,-137.18 -0.83,-140.60 390.58 80
2 04/17/2022 06:32:17 -0.05,-137.18 0.29,-135.61 178.04 80
3 04/18/2022 18:51:10 0.05,-137.17 0.70,-140.18 342.64 80
4 04/19/2022 18:33:09 0.05,-137.16 -0.37,-135.18 225.38 80
5 04/21/2022 06:52:08 -0.04,-137.13 -0.66,-139.77 300.98 80
6 04/22/2022 06:28:49 -0.04,-137.12 0.47,-134.78 266.39 80
7 04/23/2022 18:47:40 0.03,-137.10 0.56,-139.34 255.86 80
8 04/24/2022 18:29:41 0.03,-137.08 -0.57,-134.35 311.47 80
9 04/26/2022 06:48:40 -0.03,-137.05 -0.46,-138.94 215.47 80
10 04/27/2022 06:25:21 -0.03,-137.03 0.67,-133.95 351.80 80
11 04/28/2022 18:44:12 0.03,-137.01 0.34,-138.51 170.51 80
12 04/29/2022 18:26:11 0.03,-136.99 -0.74,-133.51 396.66 80
